Theta_e
308 309 309 309 309 309 310 310 311 312 312 313 313 313 313 312 312 312 310 313 314 312 313 314 315 315 316 314 311 306 306 309 313 311 313 312 313 311 309 310 309 309 310 308 310
308 309 309 310 310 310 311 312 313 315 317 316 316 315 314 313 313 313 313 315 313 312 313 313 313 314 311 315 312 307 305 308 310 312 313 313 313 312 312 310 311 310 308 307 307
308 308 309 310 310 311 313 315 315 318 319 319 318 317 314 312 312 311 314 314 313 313 314 315 314 313 313 314 314 311 308 310 314 312 313 313 313 311 312 312 310 310 306 302 303
308 309 310 310 311 313 315 317 319 319 320 320 319 317 314 312 318 313 312 311 311 314 315 314 311 313 311 314 313 315 313 312 314 313 313 313 312 312 311 310 307 302 302 301 300
309 310 311 312 313 316 318 320 321 321 321 320 319 316 312 311 312 315 312 310 311 314 314 312 313 312 312 312 312 315 314 312 312 311 310 310 311 312 310 305 302 302 300 299 298
311 313 314 314 315 317 319 321 321 321 321 321 317 313 311 312 314 314 312 311 312 314 313 312 311 311 312 312 312 311 311 310 309 310 309 311 310 310 306 302 302 301 299 298 298
313 314 315 315 316 318 320 321 322 322 321 320 314 312 311 311 313 316 315 311 312 313 311 312 312 312 311 311 310 310 312 308 309 309 310 307 312 311 305 302 301 299 297 297 297
315 315 315 315 317 319 321 322 322 322 320 314 310 312 311 311 313 316 314 313 313 313 313 312 312 310 311 309 307 310 307 310 310 310 310 310 313 311 304 303 301 299 297 297 296
316 316 316 316 317 320 322 322 322 319 316 313 314 311 312 310 313 314 314 313 312 312 312 312 310 308 308 308 308 306 311 309 309 310 310 310 312 310 304 303 300 298 297 297 296
317 316 317 316 318 320 322 322 320 316 313 313 314 313 310 309 309 311 312 312 310 309 309 309 305 307 306 307 313 311 309 308 309 311 310 310 310 308 305 303 300 298 297 296 295
317 317 317 317 318 321 323 322 315 315 316 314 313 313 309 308 309 308 310 310 308 307 309 308 308 309 308 307 308 308 308 310 309 309 311 310 309 308 304 301 299 298 297 295 294
318 317 317 317 320 322 322 318 316 315 318 315 313 309 310 308 309 307 310 309 308 308 307 307 308 308 307 307 308 309 309 308 308 308 309 309 309 309 304 303 301 298 297 295 294
318 317 317 318 321 322 322 320 317 315 317 316 314 315 314 309 312 309 307 307 308 308 307 308 311 306 307 307 308 307 308 309 310 310 309 309 309 307 303 301 300 298 296 295 293
318 318 317 320 322 321 321 323 320 314 319 318 315 313 309 310 314 307 307 308 308 309 307 308 308 311 309 309 307 309 308 309 311 312 315 308 313 309 305 303 300 297 295 294 293
318 318 317 321 321 319 321 321 317 313 324 315 313 308 307 315 309 307 306 308 309 309 308 313 310 310 311 311 309 312 309 309 310 310 309 309 310 308 305 305 302 298 295 294 292
318 318 318 321 321 320 318 316 314 321 325 316 308 308 310 307 307 305 307 306 307 309 309 310 307 308 310 308 309 306 308 307 306 307 311 310 310 310 307 307 302 298 296 294 292
319 318 319 321 321 321 314 314 323 327 318 315 310 307 310 307 307 307 307 308 310 314 314 312 310 308 307 308 307 307 309 314 314 313 316 309 308 309 306 304 303 300 296 294 292
320 319 319 320 321 321 313 322 327 324 320 309 309 307 310 307 307 307 307 309 307 309 310 314 316 309 307 308 309 307 310 315 317 314 312 309 313 312 301 299 298 299 296 294 292
320 320 319 320 321 322 318 327 327 323 319 310 310 309 309 308 308 308 306 307 307 305 314 312 315 308 306 307 308 308 310 309 310 296 309 312 310 304 300 300 298 296 295 294 292
320 319 320 320 321 318 322 326 324 320 317 311 318 312 311 311 309 307 307 306 309 305 309 312 317 309 307 308 308 309 308 313 309 311 312 313 310 312 305 302 298 297 296 294 293
320 321 321 321 320 320 325 323 324 319 316 315 318 315 311 314 311 308 309 310 309 307 308 309 314 312 309 309 310 311 312 310 310 309 311 308 311 303 305 301 299 298 297 295 294
317 322 317 321 323 322 325 324 320 320 316 316 315 316 315 315 313 310 312 312 308 308 310 310 311 310 311 307 306 308 310 309 314 311 306 308 314 301 302 300 300 299 297 295 293
315 313 312 318 327 325 322 323 321 318 318 317 317 317 315 315 319 313 313 310 308 311 312 311 311 306 310 309 307 309 307 307 306 304 305 315 312 302 299 299 298 297 295 294 293
312 316 312 312 313 320 323 323 322 315 317 317 317 315 315 316 317 318 313 310 308 309 311 312 309 311 316 311 309 309 308 306 309 313 313 312 311 306 303 301 298 297 296 294 293
310 313 312 315 316 315 319 320 321 319 315 316 317 318 319 319 318 317 311 309 308 309 309 311 312 309 309 306 306 308 308 305 307 309 313 311 307 304 304 302 299 297 296 295 294
308 308 305 311 312 314 316 318 320 317 316 316 317 316 318 319 317 317 313 311 311 307 308 305 312 308 307 304 306 307 305 304 306 304 304 303 303 299 299 299 296 295 295 293 292
298 299 305 308 310 315 315 313 315 316 311 312 314 315 317 317 311 305 308 309 310 309 308 306 304 305 314 299 301 308 305 305 304 303 305 305 306 294 296 295 293 292 290 290 292
Wind_Speed
3 3 3 3 4 4 5 6 6 8 9 10 10 12 13 14 14 9 3 1 0 3 3 4 4 4 4 4 4 3 4 2 4 6 2 2 4 0 2 0 4 3 2 7 14
6 5 5 5 5 5 6 6 7 9 11 12 12 13 13 15 13 5 1 2 2 4 4 4 2 4 4 3 3 5 4 6 3 2 2 2 1 3 4 6 2 4 6 18 15
8 7 7 7 6 6 6 7 8 9 11 13 13 12 12 12 4 2 1 3 4 6 4 5 5 3 3 2 2 2 4 3 2 3 1 1 2 2 2 4 2 4 7 14 20
10 9 8 8 7 6 6 7 8 9 12 13 13 11 9 5 2 2 1 2 6 6 6 5 5 3 2 1 1 1 3 3 3 1 2 2 3 1 5 3 4 8 8 7 12
11 10 9 8 7 6 7 8 9 11 13 13 12 8 3 2 5 3 1 4 7 6 3 3 3 3 2 3 2 2 2 1 3 4 4 3 5 2 6 6 10 12 14 11 12
13 10 9 8 7 7 7 8 10 12 13 12 10 4 1 2 2 1 0 4 5 7 4 4 5 4 3 2 2 1 3 6 6 2 3 5 2 2 2 6 10 10 9 8 12
13 12 11 9 8 7 8 10 11 13 14 12 8 0 2 9 3 2 3 3 4 4 4 4 5 3 3 3 2 2 4 7 4 2 3 6 1 5 4 7 9 9 8 8 13
15 13 12 10 9 8 9 11 12 14 13 8 2 2 6 3 4 5 5 6 6 5 4 3 5 5 3 3 6 3 4 4 2 2 2 3 7 3 6 8 7 7 7 8 10
17 15 13 11 10 9 9 10 13 11 5 2 1 1 7 1 3 6 6 6 8 6 5 6 5 3 4 5 4 6 3 4 8 1 2 2 5 3 5 8 7 6 6 7 7
18 17 14 12 11 9 9 10 10 6 2 1 1 2 1 3 4 6 6 11 4 5 4 5 5 3 3 4 5 6 4 4 6 1 3 2 7 9 6 7 7 6 6 6 7
20 17 15 13 10 9 7 4 2 2 3 8 5 3 3 4 5 4 5 7 4 5 5 1 4 8 13 10 3 4 4 6 3 3 2 6 7 12 4 7 7 7 6 6 6
21 18 16 13 10 8 6 3 3 2 6 11 4 5 3 6 3 3 10 5 4 5 5 4 7 10 4 5 5 3 4 6 5 4 5 6 9 2 3 2 5 8 6 6 4
23 20 17 14 10 10 10 9 2 1 2 6 5 5 5 9 5 8 10 4 4 6 7 8 5 6 6 4 6 5 7 4 7 1 2 1 7 4 3 4 6 5 5 5 5
26 22 19 15 7 11 7 13 10 3 3 6 5 5 4 7 4 1 8 5 3 10 7 6 3 6 4 6 7 5 8 7 4 3 4 2 5 4 3 3 3 5 6 6 6
27 25 24 23 5 8 4 13 12 3 5 3 3 2 3 5 6 2 2 3 7 7 7 7 7 5 6 6 7 6 5 5 3 3 1 3 0 6 5 5 6 7 7 6 6
29 28 26 25 17 4 9 17 7 2 11 4 4 5 6 2 1 3 2 3 3 5 1 5 2 6 7 2 6 9 6 6 4 3 1 8 7 4 5 5 5 6 7 7 6
32 31 33 27 14 23 18 9 2 8 1 6 5 6 4 6 3 4 6 6 6 5 6 1 4 3 3 5 2 4 6 0 3 1 6 1 2 7 5 3 5 14 12 9 7
37 34 36 35 21 24 15 3 10 11 9 3 5 4 7 8 5 7 7 6 6 3 3 7 4 10 6 7 8 7 6 5 7 4 4 2 6 5 3 5 7 9 11 9 8
39 38 35 39 33 31 7 13 15 8 8 10 4 4 5 4 6 5 7 6 9 11 8 6 5 1 2 2 4 5 4 2 6 2 2 5 4 2 1 1 4 7 10 10 8
38 26 33 39 41 24 10 20 12 7 8 5 17 9 12 9 8 8 10 6 6 12 4 7 2 1 2 3 4 4 6 4 2 2 5 4 4 5 5 8 6 8 11 8 8
31 6 17 40 42 8 12 13 19 6 7 11 15 10 7 9 11 7 8 3 7 6 6 6 4 1 4 5 9 3 3 3 3 4 5 2 5 6 7 9 13 12 11 11 11
4 5 15 46 13 5 17 22 9 8 8 6 4 5 11 11 10 9 13 7 9 10 11 7 4 4 6 2 1 0 6 7 6 6 2 1 11 2 4 11 15 13 11 9 8
3 1 10 20 15 15 6 16 13 9 13 9 8 5 4 10 6 7 7 1 7 10 11 9 3 2 5 1 1 4 5 3 4 3 7 6 8 3 4 7 8 9 9 8 8
4 3 1 1 2 4 17 14 15 3 9 6 6 4 4 4 1 7 7 1 2 4 3 7 5 8 10 6 5 6 7 6 6 5 5 13 14 3 4 8 7 8 7 8 8
2 4 5 5 9 4 6 10 15 9 4 5 2 15 17 6 7 8 4 3 0 1 1 5 7 5 3 4 5 7 7 10 10 12 13 13 13 7 11 10 10 8 6 7 8
3 3 2 3 7 12 6 7 15 5 8 5 4 8 10 9 9 7 7 4 4 0 4 3 1 3 2 2 1 5 9 11 17 4 6 4 11 7 5 4 5 8 8 8 9
3 1 1 5 4 7 10 8 13 7 2 1 7 6 13 14 5 3 4 7 7 7 6 5 6 4 5 4 4 9 10 15 6 5 11 12 14 4 5 7 9 9 8 8 8
Wind_Direction
267 279 293 303 314 320 325 332 340 340 338 334 334 330 330 328 327 317 273 216 226 188 158 137 79 36 45 70 59 114 62 170 204 159 207 339 41 304 312 257 345 328 11 356 352
267 272 277 287 300 315 323 329 337 344 343 336 332 329 330 330 327 307 233 189 155 155 157 121 77 44 43 31 29 80 106 220 223 190 197 311 81 327 10 359 21 330 4 10 28
263 270 281 287 295 312 320 333 331 338 337 333 329 326 328 332 340 334 347 190 182 163 142 108 101 71 72 35 22 137 168 202 254 234 112 303 311 128 349 329 87 291 341 23 32
255 261 268 282 292 304 317 328 332 329 331 330 328 326 326 333 292 359 287 175 172 151 141 101 46 59 88 144 112 64 204 190 286 284 36 304 328 356 204 150 127 78 73 50 31
256 262 270 277 291 304 313 321 326 323 325 327 327 331 332 21 259 330 28 176 172 164 119 103 109 125 172 170 119 163 295 239 271 264 256 319 250 243 271 77 87 71 52 40 32
254 264 273 277 281 288 298 307 314 316 320 323 324 332 115 256 237 265 134 164 171 165 133 124 165 187 125 116 142 219 319 300 290 243 242 210 223 172 25 112 69 64 58 45 40
251 260 267 270 270 276 288 299 307 313 317 317 319 198 105 239 212 204 183 170 171 180 138 161 140 106 128 107 337 91 333 326 281 317 220 167 278 212 147 101 76 54 46 43 34
250 254 258 259 260 269 283 297 304 311 312 327 342 125 243 250 212 192 157 130 136 124 125 121 139 104 77 114 23 35 55 357 285 161 316 145 261 67 144 98 80 65 46 41 32
251 252 251 249 251 264 280 299 307 310 296 330 353 122 268 211 197 189 179 152 131 114 92 105 79 87 43 97 15 8 240 211 312 59 118 125 260 177 128 105 103 74 55 46 30
248 245 243 241 245 258 279 302 305 301 260 243 95 17 201 219 158 157 153 147 118 106 54 52 54 83 50 111 221 196 211 233 232 359 68 151 267 285 45 102 115 95 71 53 45
243 238 235 235 238 254 277 309 344 295 222 197 200 215 141 135 139 153 152 117 91 66 153 35 123 208 201 200 155 150 177 210 249 221 135 237 237 263 84 101 127 130 114 90 59
238 234 231 227 230 248 265 204 221 153 303 233 233 276 212 179 119 201 165 142 148 165 118 57 223 227 139 169 183 147 176 238 284 229 166 262 255 205 20 105 158 142 128 114 101
234 232 226 217 219 236 238 228 254 206 254 282 193 189 194 168 217 200 152 144 148 143 190 171 212 146 157 166 174 201 208 186 214 10 257 20 285 171 32 78 84 96 122 119 113
233 227 213 201 208 218 224 246 232 176 288 258 218 241 127 149 220 96 174 144 177 192 165 229 263 181 168 208 150 221 197 191 180 119 231 125 272 303 155 125 140 150 151 143 129
228 222 202 191 180 178 222 190 175 134 288 223 175 125 138 163 133 1 147 49 170 172 140 232 177 176 198 214 159 224 119 158 142 156 86 239 298 256 129 224 196 198 182 174 167
224 216 202 199 225 204 182 154 142 102 239 202 134 160 133 140 106 112 128 51 140 128 229 238 272 165 200 117 166 146 83 54 54 83 267 226 187 251 193 210 168 173 191 179 177
221 216 203 199 208 214 166 140 166 216 4 188 184 173 162 157 166 149 162 175 162 135 217 196 220 191 159 95 59 101 105 326 348 332 233 329 165 249 185 182 190 184 177 179 186
223 212 212 206 198 194 171 132 211 213 207 103 128 109 183 158 202 167 139 192 236 154 129 168 259 168 191 185 172 181 165 161 210 205 245 62 237 258 351 327 267 164 165 174 179
222 215 209 209 199 189 185 201 220 178 165 137 94 146 225 215 157 142 195 204 198 184 187 159 266 138 116 125 134 190 195 145 100 19 45 209 260 225 48 37 107 145 162 187 184
207 208 212 201 201 182 207 216 231 173 132 149 200 182 183 192 160 188 176 199 206 186 210 205 142 64 131 111 41 156 162 78 3 256 259 250 256 224 228 214 167 178 192 202 201
211 211 206 193 187 201 216 218 225 200 150 178 204 188 189 177 181 198 201 237 197 174 161 161 130 243 120 203 175 139 175 80 143 153 201 283 253 209 207 169 186 201 203 198 202
200 208 170 168 201 198 215 213 184 187 199 211 234 155 174 176 184 203 199 229 162 146 167 194 139 165 190 127 15 33 197 163 196 226 238 136 261 349 239 186 180 195 203 206 205
150 130 204 195 209 215 203 219 217 177 200 171 204 195 185 166 201 182 189 341 178 155 166 178 183 89 358 70 68 208 196 168 110 72 198 213 265 356 96 153 191 186 198 200 203
145 142 183 232 2 232 211 211 210 208 200 172 163 135 117 151 212 181 203 189 289 194 191 147 163 174 211 190 138 173 189 191 168 221 214 241 270 196 199 194 189 204 199 195 203
154 193 179 187 228 254 276 187 198 180 212 181 179 195 185 178 186 181 144 126 324 214 305 174 210 174 162 150 175 200 190 175 193 217 221 255 228 189 205 201 203 193 192 201 214
144 155 317 192 169 199 239 194 204 176 165 196 176 170 185 186 180 178 153 163 184 71 175 345 184 100 305 35 268 258 229 177 212 196 239 216 258 183 206 208 165 203 204 223 235
75 19 232 172 170 183 206 195 212 187 292 156 204 185 216 213 190 106 116 148 167 161 179 169 144 140 224 77 66 278 223 213 189 193 201 217 242 135 197 204 206 220 211 215 224